Regional Weather Roundup
Issued by NWS Newport/Morehead, NC

Current Version | Previous Version | Text Only | Print | Product List | Glossary On
Versions: 1 2 3 4 5 6 7 8 9 10 11 12 13 14 15 16 17 18 19 20 21 22 23 24 25 26 27 28 29 30 31 32 33 34 35 36 37 38 39 40 41 42 43 44 45 46 47 48 49 50
000
ASUS42 KMHX 281022
RWRMHX
WEATHER ROUNDUP FOR EASTERN NORTH CAROLINA
NATIONAL WEATHER SERVICE NEWPORT/MOREHEAD CITY NC
500 AM EST SUN DEC 28 2014

NOTE: "FAIR" INDICATES FEW OR NO CLOUDS BELOW 12,000 FEET
WITH NO SIGNIFICANT WEATHER AND/OR OBSTRUCTIONS TO VISIBILITY

NCZ015>017-031-032-045>047-102-103-281100-
NORTH COAST

CITY           SKY/WX    TMP DP  RH WIND       PRES   REMARKS
EDENTON        MOCLDY    50  45  84 SW8       30.09F
ELIZABETH CITY MOCLDY    53  44  71 S8        30.09F
KITTY HAWK     PTSUNNY   50  47  87 SW6       30.10F
MANTEO         MOCLDY    50  46  87 SW5       30.11F

$$

NCZ045>047-081-094-103-104-281100-
CENTRAL COAST

CITY           SKY/WX    TMP DP  RH WIND       PRES   REMARKS
FRISCO         MOCLDY    55  51  86 W5        30.13F
SWANQUARTER      N/A     50 N/A N/A CALM      30.09S

$$

NCZ095-097-098-100-101-281100-
SOUTHERN COAST

CITY           SKY/WX    TMP DP  RH WIND       PRES   REMARKS
BEAUFORT       MOCLDY    50  50 100 CALM      30.13F
CEDAR ISLAND     N/A     54 N/A N/A SW3       30.15S
JACKSONVILLE   CLOUDY    49  47  93 CALM      30.12F
PINEY ISLAND   PTSUNNY   55  49  80 SW3       30.12F
WILMINGTON     CLOUDY    51  48  89 CALM      30.12F


$$

NCZ011>013-027>030-043-044-078>080-089-090>093-098-281100-
COASTAL PLAIN

CITY           SKY/WX    TMP DP  RH WIND       PRES   REMARKS
AHOSKIE        MOCLDY    50  44  79 S3        30.08F
CLINTON        CLOUDY    50  47  88 CALM      30.12S
ELIZABETHTOWN  CLOUDY    50  46  86 CALM      30.12S
GOLDSBORO      CLOUDY    51  51  98 S2        30.09F
GREENVILLE     CLOUDY    52  45  76 SW5       30.12F
HAVELOCK       MOCLDY    47  44  90 CALM      30.13F
KENANSVILLE    CLOUDY    47  45  91 CALM      30.12F
KINSTON        CLOUDY    50  45  84 S3        30.11F
NEW BERN       MOCLDY    50  46  86 CALM      30.13F
RICHLANDS      CLOUDY    48  45  87 CALM      30.12F
ROCKY MOUNT    CLOUDY    50  44  80 S6        30.09F
WASHINGTON     MOCLDY    50  45  83 SW3       30.11F
WHITEVILLE     CLOUDY    51  49  92 CALM      30.11F

$$

AMZ130-135-150-152-154-156-158-170-250-252-270-ANZ085-086-088-633-658-670-281100-
MARINE OBSERVATIONS

STATION/POSITION TIME  TEMP    WIND        PRES    WAVE   SWELL
                       AIR SEA DIR/SP/G            HT/PER HT/PER
                 (UTC) (F)     (DEG/KT/KT) (MB)    (FT/S) (FT/S)
CHESAPEAKE LIGHT 1000   50     210/ 21/ 22 1017.5
64 E VA BEACH    1000   55 53  230/ 14/ 17 1018.7    3/15   3/15
DUCK             1000   53 49  220/  9/ 12 1018.4
2 E DUCK         1000      48                N/A     3/14   2/14
10 NE DUCK       1000      50                N/A     3/13   3/13
OREGON INLET     1000   52 53  220/  5/  7 1019.9
13E OREGON INLT  1000      53                N/A     3/15   2/15
HATTERAS CG      1000   56 55  250/  3/  5 1020.4
DIAMOND BUOY     1000   69                 1020.3    4/14
17 S OCRACOKE    NOT AVBL
CAPE LOOKOUT     1000   58      CALM  /  3 1020.1
BEAUFORT LAB     1000   52 55   10/  2/  3 1019.1
30 SE NEW RIVER  1000   63 61  210/  4/  6 1020.5    3/14   3/14
5 SE WRIGHTSVLE  NOT AVBL
225 S CAPE HAT   0910   71 74  190/ 12/ 14 1022.1    5/14   5/14
41 SE CHARLESTON 1000   72 74  210/  8/  8 1019.6    2/15   2/15

$$



USA.gov is the U.S. government's official web portal to all federal, state and local government web resources and services.